Weather in Oleksiivka

Ukraine / Kharkiv Region     48°45′12″N   36°19′33″E
temp.,
°C
wind,
m/s
gust,
m/s
humid.,
%
clouds,
%
prec.,
mm/h
press.,
hPa
HPBL,
m
23 september, thu
thu2300:00+9w2279100 0.1 1014241
03:00+8nw1182100 0.3 1014174
06:00+8n1187100 0.6 1013142
09:00+8n2284100 0.9 1013233
12:00+9nnw1083100 0.6 1013246
15:00+11nw336997 0.8 1013943
18:00+10nw237254 0.1 101382
21:00+7nw22875 0.1 101422
24 september, fri
fri2400:00+6wnw22895 0.0 101424
03:00+5w22905 0.0 101315
06:00+4sw22925 0.0 101330
09:00+9ssw567467 0.0 1012439
12:00+13sw7846100 0.0 10101747
15:00+12wsw71053100 0.0 10091445
18:00+9s61291100 3.4 1007626
21:00+10wsw598999 7.4 1007536
25 september, sat
sat2500:00+9sw4990100 0.0 1006460
03:00+7wsw3798100 0.0 1006227
06:00+7sw359598 0.1 1007122
09:00+8wsw3796100 3.6 1008294
12:00+11w4778100 0.9 1010763
15:00+12wnw467431 0.9 1011755
18:00+12wnw49729 0.2 1013385
21:00+10wnw4983100 0.3 1015315
26 september, sun
sun2600:00+10wsw3885100 0.0 1015264
03:00+10wsw4886100 0.1 1015370
06:00+11sw51182100 0.1 1014433
09:00+12wsw5118785 0.3 1014460
12:00+17wnw711664 0.6 10131193
15:00+17nw8115370 0.8 10131368
18:00+13nw8116526 0.0 10151009
21:00+12nw713715 0.0 1016637
27 september, mon
mon2700:00+9nw510790 0.0 1017388
03:00+8nw510865 0.0 1018312
06:00+6nnw49955 0.0 1019232
09:00+10n57735 0.0 1020442
12:00+14n45495 0.0 10201321
15:00+14n555093 0.0 10201221
18:00+12n47596 0.0 1021203
21:00+10n35725 0.0 102289